Weather Roundup
Issued by NWS Springfield, MO

Home | Current Version | Previous Version | Text Only | Print | Product List | Glossary On
Versions: 1 2 3 4 5 6 7 8 9 10 11 12 13 14 15 16 17 18 19 20 21 22 23 24 25 26 27 28 29 30 31 32 33 34 35 36 37 38 39 40 41 42 43 44 45 46 47 48 49 50
000
NZUS99 KSGF 221059
HRRSGF

HOURLY WEATHER
NATIONAL WEATHER SERVICE SPRINGFIELD MO
600 AM CDT MON SEP 22 2014

......SGF CWA......

CITY           SKY/WX    TMP DP  RH WIND       PRES   REMARKS
SPRINGFIELD    CLEAR     50  46  86 CALM      30.26R
JOPLIN         CLEAR     51  49  92 NE3       30.27R
WEST PLAINS    CLEAR     50  46  86 N3        30.25R
ROLLA          CLEAR     50  47  89 NW3       30.24R
OSAGE BEACH    CLEAR     48  45  87 CALM      30.26R

......SURROUNDING SGF CWA......

CITY           SKY/WX    TMP DP  RH WIND       PRES   REMARKS
CHANUTE        CLEAR     49  48  97 N3        30.28R
PARSONS        CLEAR     50  49  96 CALM      30.29R
EMPORIA        CLEAR     50  47  89 CALM      30.29R
GROVE OK       CLEAR     54  54 100 CALM      30.27R
SILOAM SPRINGS CLEAR     55  45  67 NE5       30.26R
HARRISON AR    CLEAR     51  49  92 N5        30.25R
NEAR YELLVILLE CLEAR     55  46  71 N7        30.24R

......KANSAS AND MISSOURI......

CITY           SKY/WX    TMP DP  RH WIND       PRES   REMARKS
KANSAS CTY INT CLEAR     51  48  89 NE6       30.29S
DOWNTOWN KC    CLEAR     53  50  89 CALM      30.29R
COLUMBIA       CLEAR     49  48  97 NW6       30.26R
SEDALIA        CLEAR     50  48  93 NW5       30.28R
ST JOSEPH      FOG       45  45 100 CALM      30.30S VSB 1
ST LOUIS       CLEAR     54  49  83 N5        30.24R
SPIRIT OF STL  CLEAR     48  47  96 CALM      30.24R
KIRKSVILLE     CLEAR     47  46  97 NW5       30.29R
WICHITA        PTCLDY    54  46  74 NW3       30.30R
TOPEKA         CLEAR     47  46  97 CALM      30.31R FOG
OLATHE         CLEAR     54  48  80 N3        30.28R

......TENNESSEE......

CITY           SKY/WX    TMP DP  RH WIND       PRES   REMARKS
MEMPHIS        CLEAR     62  51  67 NE7       30.16R
NASHVILLE      CLEAR     56  50  80 N6        30.14R

......ARKANSAS.......

CITY           SKY/WX    TMP DP  RH WIND       PRES   REMARKS
FAYETTEVILLE   CLEAR     48  48 100 CALM      30.25R
FT SMITH       CLEAR     58  53  84 CALM      30.22R
LITTLE ROCK    CLEAR     61  49  64 N10       30.19R

......OKLAHOMA.......

CITY           SKY/WX    TMP DP  RH WIND       PRES   REMARKS
TULSA          CLEAR     53  51  93 NW6       30.26R
PONCA CITY     CLEAR     50  46  86 N6        30.28R
MCALESTER      CLEAR     54  51  90 CALM      30.22R
OKLAHOMA CITY  CLEAR     60  49  66 NE8       30.25R

......IOWA............

CITY           SKY/WX    TMP DP  RH WIND       PRES   REMARKS
DES MOINES     CLEAR     50  46  86 NW3       30.29R
QUAD CITIES    CLEAR     43  41  93 CALM      30.26R

......ILLINOIS........

CITY           SKY/WX    TMP DP  RH WIND       PRES   REMARKS
QUINCY         CLEAR     49  46  90 N5        30.25R
CHICAGO        PTCLDY    46  40  79 NW8       30.22R



USA.gov is the U.S. government's official web portal to all federal, state and local government web resources and services.